Temp_Advection
nan nan nan nan nan nan nan nan nan nan nan nan nan nan nan nan nan nan nan nan nan nan nan nan nan nan nan nan nan nan nan nan nan nan nan nan nan nan nan nan nan nan nan nan
nan -0 -1 -0 -0 0 0 0 -0 -0 -0 0 -0 -1 -1 0 -0 -1 -0 -1 -1 -2 -2 -2 -2 -2 -1 -1 -0 -0 -0 0 -0 -1 0 0 1 1 1 1 1 0 1 nan
nan -1 -0 0 0 -0 0 -0 -0 -0 -0 0 -0 -1 -0 -0 -0 -1 -0 -0 -0 -1 -1 -2 -3 -2 0 0 -1 -1 -0 0 0 0 1 1 1 1 -0 -0 -0 1 1 nan
nan -0 0 0 -0 -0 -0 -0 -0 0 0 -0 -0 -1 -1 0 -0 -1 -2 -1 -2 -1 -1 -1 -2 -2 -1 -1 -1 -1 -1 0 0 0 -0 -0 0 -1 -1 0 1 2 1 nan
nan -0 -0 -0 -0 -0 -0 -0 0 0 0 -0 0 0 -1 -1 0 -0 -1 -1 -1 -1 -1 -1 -1 -1 -1 -1 -1 -1 -1 -1 1 1 -0 1 0 -0 1 1 2 2 1 nan
nan -0 0 -0 -0 0 -0 0 0 -0 -0 -0 -0 -0 -1 -0 -0 -0 -0 -1 -1 -1 -1 -2 -0 -2 -1 -1 -1 -1 -1 1 1 1 1 1 1 1 0 0 1 2 2 nan
nan -0 -0 -0 -0 -0 -0 -0 -0 0 -0 -1 -0 -0 0 -0 -0 -0 -0 -0 -1 -1 -1 -2 -1 -2 -2 -2 -1 -1 1 1 1 1 1 0 1 0 1 1 1 2 1 nan
nan -0 -0 -0 -0 -0 -0 0 -0 -0 -0 -0 -0 0 -0 -0 -0 -0 -0 -0 -1 -1 -1 -2 -2 -1 -1 -1 -2 -1 1 1 -1 -0 1 0 -0 0 0 0 1 3 1 nan
nan -0 -0 0 0 -0 0 -0 0 0 -0 0 -0 0 0 0 -0 -0 -0 -1 -1 -1 -1 -1 -3 -1 -1 -1 -1 -1 -0 -0 -0 -0 -0 -0 -0 -0 0 1 3 2 1 nan
nan -0 -0 -0 -0 -0 -0 0 -0 -0 -0 -0 -0 0 0 -0 -0 0 -1 -1 -1 -1 -1 -1 -2 -2 -1 -1 -0 0 0 1 0 0 0 0 0 1 1 2 2 1 1 nan
nan 0 -0 -0 -0 0 -0 -0 -0 0 -0 -0 -0 -0 -0 -0 -1 -0 -1 -2 -1 -0 -1 -1 -1 -1 -1 -0 -0 0 0 1 1 1 -0 1 1 1 1 1 1 1 1 nan
nan 0 -0 -0 -0 0 0 0 -0 0 -0 -0 -0 -0 -0 -0 -1 -1 -1 -1 -0 -0 -0 -1 -1 -1 -1 -0 -0 -0 0 0 0 0 1 0 2 1 0 1 1 1 1 nan
nan -0 -0 -0 -0 -0 -0 -0 -0 0 0 -0 -0 -0 -0 -0 -0 -0 -0 -0 -1 -1 -0 -1 -0 -1 -1 -1 -1 -1 -0 0 0 -0 0 0 1 1 1 1 1 1 0 nan
nan 0 0 0 -0 -0 -0 -0 -0 0 0 -0 -0 -1 0 -0 -0 -1 -1 -0 -1 -1 -1 -1 -1 -1 -1 -0 -1 -1 -0 -0 0 0 0 0 0 -0 0 1 1 0 0 nan
nan 0 0 -0 -0 0 0 -0 -0 -0 -0 -0 -1 0 -0 -0 -0 -1 -1 -1 -1 -1 -1 -1 -1 -0 -0 -0 -0 -0 -0 -0 0 1 0 1 -0 0 0 1 1 0 0 nan
nan 0 0 -0 -0 0 -0 -1 -0 -0 -0 -1 -0 1 -1 -1 -0 -1 -1 -1 -1 -1 -1 -0 0 -0 -0 -0 -1 -0 -0 -0 -0 1 2 2 2 1 0 0 0 0 0 nan
nan 0 0 -0 -0 0 -0 -1 -1 0 0 -0 1 -0 -0 -1 -1 -1 -1 -1 -1 -0 -0 0 0 0 0 0 0 0 0 0 -0 -1 -0 2 4 3 1 0 0 0 1 nan
nan -0 0 -0 -0 -0 -0 -0 0 -1 -0 -0 -0 -0 -0 -1 -1 -0 -0 -0 -0 -0 0 0 0 0 1 0 0 1 1 0 0 -1 -1 -1 0 4 4 2 2 2 1 nan
nan -0 0 -0 -0 -0 0 -0 -0 -0 -0 -0 0 -0 -1 -0 -1 -0 -0 -0 -0 0 0 0 0 0 1 0 0 1 1 0 -0 -1 -0 -0 -0 -1 1 4 2 3 3 nan
nan -0 -0 -0 -0 -0 -0 -0 -0 -0 -0 -1 -0 -0 0 -0 -0 -0 -0 -0 0 0 0 0 0 0 0 0 1 0 -0 -1 -1 -0 -0 -0 1 0 -0 -1 -0 0 1 nan
nan -0 -1 -0 -0 0 -0 -0 -0 -0 -1 -1 -0 -0 -0 -0 -1 -0 -0 -0 0 0 0 0 -0 -0 -0 1 0 -1 -1 -1 0 1 0 0 -0 -0 -1 0 0 0 0 nan
nan -0 -0 0 -0 0 -1 -0 -0 -1 -1 -0 -1 -1 -0 0 0 -0 -0 -0 0 0 0 -0 -0 -0 0 1 0 -1 -1 0 1 0 -0 -1 -0 -0 -0 -0 0 0 0 nan
nan -0 -0 -0 -0 -0 -0 -0 -1 -0 -0 -1 -1 -0 -0 -0 -0 -0 -0 0 0 0 0 0 -0 -0 -0 0 0 -0 -0 0 0 0 -0 -0 0 0 -0 -0 0 0 -0 nan
nan -0 0 -0 -0 -0 -0 -0 -0 -0 -0 -0 -0 -0 -0 -0 -0 -0 -0 0 0 0 0 0 0 -0 -0 0 -0 -0 0 0 0 -0 -0 0 -0 -0 -0 -0 -0 -0 -0 nan
nan -0 -0 -0 -0 -0 -1 -0 -0 -0 -0 -0 -0 -0 -0 -0 -0 -0 -0 0 0 0 0 0 -0 -0 -0 0 0 0 0 0 -0 -0 -0 0 -0 -0 0 -0 -0 -1 -0 nan
nan nan nan nan nan nan nan nan nan nan nan nan nan nan nan nan nan nan nan nan nan nan nan nan nan nan nan nan nan nan nan nan nan nan nan nan nan nan nan nan nan nan nan nan
Wind_Speed
2 3 9 9 7 4 3 5 10 6 10 4 13 21 17 15 10 15 26 31 37 38 36 40 40 35 36 31 30 27 27 37 44 45 43 42 40 40 36 35 35 31 29 28
2 7 9 7 5 6 7 8 10 8 12 5 11 21 18 9 8 21 23 27 33 35 39 38 36 37 37 37 34 31 27 29 41 46 42 45 42 42 37 35 35 32 31 30
6 7 2 5 6 6 8 5 8 11 9 6 7 19 10 6 12 25 26 29 27 16 17 16 18 24 30 31 32 35 30 31 32 45 45 48 45 44 40 36 35 39 34 33
6 8 8 7 7 7 11 7 14 14 6 7 8 11 25 10 5 9 20 15 16 17 19 21 19 13 14 20 21 25 30 30 30 42 48 48 45 47 42 36 43 42 35 34
7 3 4 5 6 6 8 9 10 11 4 4 9 3 12 14 17 8 8 13 14 20 20 23 28 24 19 14 17 23 30 30 31 38 50 50 49 49 43 45 44 38 36 34
6 3 3 6 4 6 8 4 4 3 2 4 19 6 16 10 5 4 8 15 18 20 22 20 21 27 21 15 14 14 21 26 32 37 46 54 49 50 47 44 40 40 38 34
4 4 2 4 4 5 7 2 2 3 1 8 5 2 7 5 3 1 7 15 20 28 25 26 21 27 23 21 18 10 20 27 32 31 43 53 49 50 48 43 38 38 37 33
2 3 4 7 5 4 6 4 4 4 3 4 3 6 4 3 6 10 7 13 24 32 30 28 19 25 22 21 20 11 15 22 31 33 40 46 46 43 43 37 33 35 35 31
2 3 3 6 1 0 4 2 2 4 1 3 4 5 1 3 4 2 6 14 21 28 32 29 24 21 18 19 16 9 10 22 27 28 34 36 38 36 36 33 29 29 30 28
1 4 2 6 9 5 5 5 4 2 3 6 5 5 5 4 6 5 7 14 19 22 27 30 26 22 19 18 16 10 6 12 19 25 27 26 27 31 29 27 25 26 26 23
1 1 1 4 1 4 5 2 3 2 4 4 5 4 2 5 8 7 9 17 16 19 22 28 25 23 19 18 17 15 6 11 16 16 25 25 24 26 24 24 22 24 22 21
1 2 3 4 9 7 5 3 2 2 3 3 3 4 4 7 9 11 15 15 15 18 22 26 26 25 23 20 18 17 12 2 5 8 13 19 29 17 25 21 19 22 22 18
2 1 3 5 4 5 4 3 2 3 5 5 4 2 6 6 6 7 11 13 15 18 22 28 29 28 27 23 20 15 13 11 2 4 9 16 26 35 36 22 20 22 18 16
4 3 5 5 3 2 5 9 11 6 3 4 6 13 5 3 5 10 14 13 17 19 22 28 31 29 27 24 22 19 11 7 4 2 8 12 10 13 23 23 22 17 15 16
4 4 4 6 7 7 14 17 17 12 14 7 12 10 0 5 5 11 12 16 18 21 23 26 30 30 28 27 24 21 16 7 3 7 14 19 21 22 27 22 21 19 18 18
1 2 4 6 8 13 16 20 19 15 14 15 17 14 5 8 8 16 16 15 17 19 21 23 28 29 29 28 26 23 21 16 8 7 15 20 26 29 26 24 23 21 16 22
6 4 2 6 5 10 14 11 18 8 5 12 10 4 7 8 8 15 13 12 14 17 20 24 26 28 27 25 23 23 22 19 17 11 9 14 24 27 24 24 24 22 20 18
8 5 3 4 2 5 4 16 7 15 6 8 10 8 8 13 10 11 12 12 15 18 21 23 24 26 27 25 24 21 22 22 23 21 20 15 8 21 24 25 25 23 22 23
15 7 2 3 3 8 8 2 5 3 6 8 6 9 14 16 13 13 12 15 16 15 17 19 19 21 23 26 29 29 30 27 27 26 25 24 18 13 12 21 20 21 22 23
10 7 4 2 3 3 4 11 9 7 3 9 8 4 10 10 0 2 9 10 13 16 17 17 18 20 22 24 26 31 34 34 34 29 24 24 25 21 18 15 13 10 13 16
6 3 11 6 3 5 12 18 11 1 3 10 9 12 6 4 8 11 8 10 13 15 18 19 21 24 23 23 24 29 30 33 29 28 27 25 23 22 21 17 16 17 15 13
3 4 4 5 4 4 24 6 5 7 11 12 13 15 20 19 15 12 11 11 12 14 16 20 22 25 26 24 24 27 29 24 23 23 25 25 24 25 22 20 21 20 20 21
3 4 2 4 3 5 11 13 15 12 13 12 14 15 18 18 16 14 12 12 13 14 16 17 19 21 23 25 27 28 25 21 22 23 24 24 22 23 22 22 23 24 24 23
6 10 2 2 5 10 11 12 14 15 15 13 15 14 14 17 14 13 11 12 12 13 15 15 17 20 21 22 23 26 23 22 21 23 23 22 22 20 19 21 22 23 22 22
4 8 5 4 6 9 13 11 10 12 12 13 13 12 13 12 12 12 13 14 14 14 15 16 18 20 21 19 20 20 20 19 20 21 21 21 19 18 17 17 18 18 19 17
7 4 3 2 5 8 5 7 6 10 12 11 12 12 12 11 14 13 14 13 14 14 14 16 16 17 18 17 18 18 18 17 16 17 19 19 18 17 16 15 15 14 14 13
Wind_Direction
195 145 217 222 214 205 242 269 270 273 265 287 283 282 289 290 256 264 273 285 293 294 299 287 285 285 276 278 275 269 250 241 231 228 224 227 228 233 230 228 225 222 225 228
37 237 231 228 209 216 239 258 275 272 255 216 263 274 282 277 260 271 281 284 289 297 302 297 294 286 286 278 270 267 260 249 237 230 228 226 225 230 230 228 229 225 228 230
184 237 213 208 245 241 245 223 258 261 290 253 285 280 283 283 280 290 292 299 303 324 323 312 294 283 272 270 262 262 259 252 239 235 227 226 223 223 222 225 228 232 228 228
226 253 236 258 247 225 263 237 253 267 270 263 181 286 297 293 308 315 322 339 16 4 358 351 346 332 285 259 248 250 255 246 246 233 226 224 220 221 225 226 232 227 227 223
235 246 222 215 219 218 255 230 259 267 245 316 258 151 278 318 311 328 346 19 1 343 342 349 350 346 331 303 266 246 243 238 239 233 230 228 222 222 224 223 231 227 223 220
230 273 236 219 255 221 264 268 245 33 88 270 285 171 280 296 331 6 360 10 2 345 346 341 343 338 326 332 296 250 236 235 230 232 232 226 224 221 220 224 227 226 219 220
327 263 66 13 36 360 14 65 322 311 331 250 34 317 247 7 24 80 8 352 357 359 354 353 338 340 335 330 318 258 217 224 226 227 231 225 225 224 221 225 222 226 216 218
134 303 13 340 58 342 298 177 187 264 215 260 17 254 254 106 67 66 53 14 359 360 359 350 353 343 353 337 324 302 218 218 224 225 227 226 230 228 225 226 226 229 218 220
35 245 287 102 176 132 302 344 252 273 298 288 234 279 145 141 32 47 26 42 11 353 354 347 2 350 355 348 349 330 229 211 225 228 229 231 232 228 222 223 228 221 217 219
102 294 336 349 356 9 80 284 348 12 266 240 260 244 234 7 341 320 26 34 10 351 350 351 356 359 2 0 358 28 141 173 218 225 223 230 226 226 226 231 222 212 214 207
51 158 305 44 78 299 340 312 292 181 257 276 278 260 1 45 1 334 31 31 12 354 351 351 358 2 2 6 11 24 91 166 171 196 222 215 228 232 238 228 210 208 200 204
230 159 289 250 264 270 220 57 346 151 275 275 270 268 83 84 56 42 22 8 6 0 354 355 4 7 8 15 17 15 40 65 173 172 188 218 225 230 228 207 215 203 199 205
168 27 330 321 27 22 53 327 332 264 255 234 272 266 43 29 46 39 39 2 9 4 360 3 12 15 12 14 20 19 15 42 25 207 209 222 229 246 211 194 199 196 199 210
120 175 195 243 296 323 291 291 285 247 238 279 257 295 316 10 41 46 32 9 13 13 5 8 15 17 16 16 22 24 27 14 62 220 197 221 209 204 180 181 188 189 190 191
125 204 217 257 279 275 275 273 273 251 242 234 264 278 321 23 17 51 36 19 12 13 9 9 12 17 18 22 24 28 31 25 54 165 181 190 212 210 180 178 181 188 187 191
125 239 187 251 259 258 265 263 260 253 255 243 252 265 100 54 357 46 33 28 15 8 9 10 18 20 22 25 25 28 35 36 31 131 152 155 163 171 175 179 180 185 192 187
169 164 110 267 239 297 278 274 260 209 236 241 225 118 127 72 29 35 24 28 25 16 12 18 25 27 25 28 32 36 42 47 47 49 65 142 152 158 174 176 180 184 191 201
205 149 163 279 343 254 315 338 53 108 58 45 92 106 113 110 88 55 40 35 30 25 26 29 29 36 38 39 45 51 58 57 60 57 53 44 75 128 156 166 171 178 189 185
210 185 221 198 209 291 297 4 330 19 63 24 77 115 124 133 122 57 42 39 45 40 37 40 37 40 45 49 53 55 60 61 64 65 64 60 53 47 85 139 149 157 165 168
163 172 156 195 234 273 46 336 314 273 86 33 43 41 166 166 90 39 46 50 48 48 46 47 50 49 50 49 51 55 55 56 56 55 63 76 78 73 65 65 83 101 138 144
136 162 214 222 268 274 358 327 342 236 73 66 55 47 74 103 86 114 77 59 58 56 57 58 58 55 50 52 53 57 57 57 58 59 59 59 63 77 82 92 93 96 90 85
133 193 180 203 207 281 359 16 26 96 91 98 84 86 94 108 108 94 85 76 70 65 60 58 59 60 60 57 58 59 56 55 57 61 65 67 69 70 77 80 84 87 90 94
59 352 24 25 70 48 26 43 61 86 95 95 99 108 115 112 103 99 89 83 78 74 69 65 64 63 59 59 60 62 60 58 60 63 67 68 69 72 75 76 79 83 84 87
355 9 82 131 57 53 57 56 64 77 82 92 107 116 114 108 104 101 94 92 93 84 77 74 70 65 62 58 59 63 62 61 62 65 66 67 68 73 78 80 80 79 80 84
341 324 28 83 107 99 47 50 70 82 95 104 108 111 114 115 108 109 102 97 94 91 84 77 71 68 65 61 61 59 56 55 60 64 67 68 69 70 74 77 77 76 80 76
345 359 5 55 342 90 77 81 88 102 101 112 118 115 112 116 115 115 107 101 95 88 82 77 73 70 67 62 62 61 58 53 55 58 58 58 58 59 62 71 80 88 90 91
Height
1459 1465 1465 1464 1464 1461 1462 1465 1465 1461 1454 1454 1448 1433 1432 1429 1430 1427 1425 1423 1420 1415 1413 1411 1410 1408 1407 1409 1409 1410 1410 1414 1420 1421 1425 1431 1434 1439 1443 1446 1451 1453 1456 1459
1462 1465 1457 1456 1459 1461 1462 1464 1462 1455 1447 1451 1448 1432 1423 1428 1423 1421 1419 1416 1413 1408 1405 1403 1400 1399 1397 1399 1401 1402 1403 1405 1410 1414 1419 1422 1428 1432 1436 1441 1448 1449 1452 1454
1461 1454 1451 1455 1455 1458 1457 1460 1455 1452 1445 1443 1442 1426 1424 1420 1417 1415 1413 1410 1407 1404 1401 1398 1394 1390 1388 1389 1391 1392 1396 1398 1402 1407 1411 1414 1421 1426 1429 1435 1441 1442 1445 1449
1454 1446 1449 1452 1453 1451 1454 1446 1444 1444 1449 1451 1436 1439 1409 1414 1415 1415 1411 1407 1408 1406 1402 1399 1392 1387 1383 1381 1382 1383 1387 1390 1396 1399 1401 1405 1411 1416 1422 1429 1432 1435 1439 1444
1449 1444 1447 1447 1446 1443 1444 1440 1440 1440 1443 1441 1427 1450 1415 1413 1410 1411 1413 1411 1409 1407 1401 1395 1389 1384 1382 1376 1373 1375 1378 1382 1386 1390 1394 1397 1403 1408 1414 1419 1426 1432 1436 1439
1444 1441 1441 1440 1438 1439 1436 1438 1436 1440 1444 1448 1421 1441 1421 1418 1416 1417 1417 1416 1412 1405 1399 1393 1387 1387 1382 1372 1370 1367 1370 1374 1378 1382 1386 1390 1395 1400 1406 1412 1420 1425 1430 1434
1446 1442 1439 1438 1439 1438 1440 1442 1456 1457 1459 1439 1428 1434 1426 1420 1418 1420 1421 1418 1414 1407 1397 1391 1382 1389 1380 1370 1370 1364 1365 1367 1372 1375 1380 1383 1389 1394 1400 1406 1412 1419 1424 1427
1455 1451 1445 1444 1445 1448 1445 1444 1455 1445 1447 1444 1428 1435 1419 1419 1418 1418 1417 1417 1414 1405 1402 1396 1386 1389 1375 1375 1369 1360 1360 1365 1368 1370 1375 1381 1385 1392 1397 1404 1407 1413 1419 1423
1454 1452 1446 1445 1445 1446 1444 1447 1441 1442 1434 1440 1428 1421 1421 1417 1416 1415 1413 1406 1410 1410 1404 1398 1386 1388 1380 1376 1369 1362 1359 1365 1366 1370 1374 1378 1384 1390 1394 1399 1403 1410 1416 1420
1455 1459 1448 1445 1442 1442 1445 1445 1454 1448 1445 1432 1422 1420 1418 1415 1414 1414 1414 1409 1411 1413 1407 1400 1394 1386 1380 1375 1369 1364 1361 1361 1366 1369 1372 1377 1382 1388 1392 1396 1400 1406 1412 1416
1455 1457 1453 1449 1449 1452 1453 1451 1446 1448 1447 1429 1424 1420 1413 1418 1416 1412 1417 1413 1416 1415 1412 1406 1396 1390 1383 1376 1370 1364 1362 1361 1364 1367 1371 1373 1380 1387 1392 1394 1398 1404 1407 1414
1455 1459 1461 1455 1447 1447 1450 1453 1452 1472 1450 1447 1445 1424 1421 1422 1423 1422 1420 1419 1420 1418 1414 1409 1399 1390 1382 1376 1370 1365 1361 1362 1363 1365 1368 1374 1378 1382 1390 1392 1396 1402 1408 1411
1456 1464 1462 1451 1450 1450 1451 1452 1452 1455 1452 1444 1438 1422 1424 1426 1425 1423 1421 1425 1423 1420 1415 1409 1401 1392 1385 1379 1372 1367 1364 1363 1363 1365 1366 1370 1374 1369 1383 1388 1394 1400 1406 1409
1454 1459 1459 1460 1455 1459 1458 1454 1452 1454 1462 1447 1438 1425 1422 1427 1427 1425 1422 1428 1425 1420 1417 1411 1402 1396 1391 1384 1376 1371 1368 1366 1366 1367 1369 1372 1374 1376 1379 1386 1392 1399 1403 1407
1457 1462 1459 1458 1457 1457 1455 1449 1444 1447 1444 1449 1432 1426 1429 1433 1434 1427 1428 1428 1426 1421 1418 1413 1408 1401 1395 1386 1380 1374 1371 1369 1368 1367 1369 1371 1375 1377 1381 1384 1391 1397 1401 1405
1458 1467 1462 1457 1455 1452 1448 1437 1432 1431 1430 1431 1425 1421 1432 1435 1440 1431 1431 1431 1430 1428 1423 1419 1412 1406 1397 1389 1385 1380 1376 1372 1371 1370 1369 1370 1372 1376 1380 1386 1390 1394 1399 1401
1459 1462 1465 1458 1450 1448 1441 1428 1417 1419 1425 1419 1415 1424 1431 1433 1442 1438 1438 1437 1434 1431 1427 1421 1417 1410 1403 1397 1392 1386 1382 1379 1377 1376 1375 1372 1372 1374 1379 1383 1387 1392 1396 1400
1451 1461 1465 1459 1454 1450 1423 1425 1410 1419 1427 1421 1422 1427 1433 1435 1443 1444 1444 1440 1436 1433 1429 1425 1420 1416 1411 1406 1400 1394 1389 1384 1382 1380 1379 1380 1380 1371 1379 1380 1385 1390 1393 1396
1440 1451 1468 1465 1453 1429 1423 1430 1426 1421 1428 1430 1427 1429 1434 1438 1441 1446 1445 1441 1439 1437 1432 1429 1427 1422 1417 1412 1406 1401 1394 1391 1388 1385 1385 1382 1384 1384 1383 1380 1385 1389 1390 1392
1437 1445 1458 1455 1445 1429 1429 1428 1425 1424 1425 1433 1432 1432 1434 1438 1435 1447 1446 1445 1442 1439 1436 1434 1430 1427 1422 1417 1413 1406 1401 1398 1394 1394 1393 1393 1391 1391 1387 1392 1393 1395 1395 1395
1441 1448 1445 1446 1447 1430 1434 1423 1419 1412 1436 1437 1437 1434 1434 1439 1445 1448 1447 1446 1445 1442 1440 1437 1433 1429 1426 1423 1419 1413 1411 1407 1407 1406 1403 1401 1398 1398 1395 1401 1402 1402 1402 1400
1429 1432 1436 1442 1439 1428 1435 1425 1426 1439 1441 1442 1443 1442 1442 1446 1448 1448 1449 1450 1448 1446 1443 1440 1438 1435 1433 1429 1426 1421 1418 1420 1418 1416 1413 1413 1414 1412 1413 1414 1410 1406 1405 1405
1435 1437 1433 1438 1444 1449 1445 1445 1443 1442 1443 1445 1445 1447 1449 1450 1450 1451 1452 1452 1451 1450 1448 1445 1443 1441 1439 1436 1432 1428 1429 1429 1427 1424 1423 1421 1422 1419 1421 1422 1420 1418 1414 1417
1440 1440 1441 1441 1451 1450 1450 1450 1448 1447 1447 1447 1448 1450 1452 1453 1453 1455 1456 1456 1455 1454 1452 1451 1449 1446 1444 1442 1439 1436 1436 1435 1434 1431 1429 1428 1428 1428 1431 1429 1427 1426 1426 1426
1451 1445 1444 1450 1452 1452 1452 1452 1451 1451 1451 1451 1451 1453 1454 1455 1457 1459 1459 1459 1458 1457 1456 1455 1453 1451 1449 1448 1445 1444 1442 1442 1440 1439 1437 1435 1435 1435 1434 1433 1433 1433 1433 1434
1456 1455 1451 1455 1456 1455 1459 1458 1456 1455 1454 1456 1455 1457 1458 1459 1460 1462 1462 1461 1461 1460 1459 1458 1457 1456 1454 1453 1451 1450 1449 1448 1446 1445 1442 1441 1440 1441 1441 1440 1438 1438 1438 1439